Weather History for KHZE - September, 2013

Change the Weather History Date:

Wednesday, September 11, 2013

  Actual Average (KBIS) Record (KBIS)
Temperature  
Mean Temperature 62 °F 61 °F  
Max Temperature 77 °F 74 °F 97 °F (1948)
Min Temperature 46 °F 47 °F 20 °F (1964)
Degree Days  
Heating Degree Days 2 6  
Month to date heating degree days 49  
Since 1 July heating degree days 104  
Cooling Degree Days 0 2  
Month to date cooling degree days 26  
Year to date cooling degree days 507  
Growing Degree Days 12 (Base 50)    
Moisture  
Dew Point 48 °F    
Average Humidity 68    
Maximum Humidity 94    
Minimum Humidity 29    
Precipitation  
Precipitation 0.00 in 0.05 in 1.74 in (1930)
Month to date precipitation 0.65  
Year to date precipitation 14.46  
Snow  
Snow 0.00 in 0.00 in 0.00 in (2002)
Month to date snowfall 0.0  
Since 1 July snowfall 0.0  
Since 1 September snowfall 0.0  
Snow Depth -    
Sea Level Pressure  
Sea Level Pressure 30.16 in    
Wind  
Wind Speed 4 mph (WSW)    
Max Wind Speed 14 mph    
Max Gust Speed 16 mph    
Visibility 10 miles    
Events      
T = Trace of Precipitation, MM = Missing Value Source: NWS Daily Summary

Daily Weather History Graph

Daily Weather History Graph

Search for Another Location

Airport or City:

Trip Planner

Search our weather history database for the weather conditions in past years. The results will help you decide how hot, cold, wet, or windy it might be!

Date:

Astronomy

Sep. 11, 2013 Rise Set
Actual Time 7:18 AM CDT 8:05 PM CDT
Civil Twilight 6:47 AM CDT 8:36 PM CDT
Nautical Twilight 6:10 AM CDT 9:13 PM CDT
Astronomical Twilight 5:32 AM CDT 9:52 PM CDT
Moon 2:15 PM CDT (9/11) 11:37 PM CDT (9/11)
Length of Visible Light 13h 48m
Length of Day
12h 46m
Waxing Crescent, 39% of the Moon is Illuminated
Sep 11
Waxing Crescent
Sep 12
First Quarter
Sep 19
Full
Sep 26
Last Quarter
Oct 4
New

Hourly Weather History & Observations

Time (CDT) Temp. Windchill Dew Point Humidity Pressure Visibility Wind Dir Wind Speed Gust Speed Precip Events Conditions
12:15 AM 53.6 °F - 50.0 °F 88% 30.05 in 10.0 mi South 3.5 mph - N/A   Clear
12:35 AM 53.6 °F - 50.0 °F 88% 30.05 in 10.0 mi Calm Calm - N/A   Clear
12:55 AM 53.6 °F - 50.0 °F 88% 30.06 in 10.0 mi South 3.5 mph - N/A   Clear
1:15 AM 53.6 °F - 50.0 °F 88% 30.06 in 10.0 mi SW 3.5 mph - N/A   Clear
1:35 AM 53.6 °F - 50.0 °F 88% 30.06 in 10.0 mi Calm Calm - N/A   Clear
1:55 AM 53.6 °F - 50.0 °F 88% 30.06 in 10.0 mi SW 3.5 mph - N/A   Clear
2:15 AM 55.4 °F - 51.8 °F 88% 30.07 in 10.0 mi SW 4.6 mph - N/A   Clear
2:35 AM 55.4 °F - 51.8 °F 88% 30.07 in 10.0 mi Calm Calm - N/A   Clear
2:55 AM 55.4 °F - 50.0 °F 82% 30.08 in 10.0 mi SW 3.5 mph - N/A   Clear
3:15 AM 53.6 °F - 50.0 °F 88% 30.08 in 10.0 mi WSW 3.5 mph - N/A   Clear
3:35 AM 53.6 °F - 50.0 °F 88% 30.08 in 10.0 mi SW 4.6 mph - N/A   Clear
3:55 AM 53.6 °F - 50.0 °F 88% 30.08 in 10.0 mi SW 3.5 mph - N/A   Clear
4:15 AM 53.6 °F - 50.0 °F 88% 30.09 in 10.0 mi WSW 3.5 mph - N/A   Clear
4:35 AM 53.6 °F - 50.0 °F 88% 30.09 in 10.0 mi SSW 4.6 mph - N/A   Clear
4:55 AM 53.6 °F - 50.0 °F 88% 30.10 in 10.0 mi SW 3.5 mph - N/A   Clear
5:15 AM 53.6 °F - 50.0 °F 88% 30.10 in 10.0 mi SW 3.5 mph - N/A   Clear
5:35 AM 53.6 °F - 50.0 °F 88% 30.10 in 10.0 mi SW 3.5 mph - N/A   Partly Cloudy
5:55 AM 53.6 °F - 50.0 °F 88% 30.10 in 10.0 mi SW 3.5 mph - N/A   Clear
6:15 AM 53.6 °F - 50.0 °F 88% 30.10 in 10.0 mi WSW 3.5 mph - N/A   Clear
6:35 AM 53.6 °F - 50.0 °F 88% 30.11 in 10.0 mi SW 3.5 mph - N/A   Clear
6:55 AM 53.6 °F - 50.0 °F 88% 30.11 in 10.0 mi SW 3.5 mph - N/A   Clear
7:15 AM 53.6 °F - 50.0 °F 88% 30.12 in 10.0 mi SW 5.8 mph - N/A   Clear
7:35 AM 53.6 °F - 50.0 °F 88% 30.13 in 10.0 mi WSW 6.9 mph - N/A   Clear
7:55 AM 53.6 °F - 50.0 °F 88% 30.13 in 10.0 mi Calm Calm - N/A   Clear
8:15 AM 55.4 °F - 51.8 °F 88% 30.13 in 10.0 mi SW 4.6 mph - N/A   Clear
8:35 AM 55.4 °F - 53.6 °F 94% 30.14 in 10.0 mi SW 6.9 mph - N/A   Clear
8:55 AM 57.2 °F - 53.6 °F 88% 30.14 in 10.0 mi WSW 6.9 mph - N/A   Clear
9:15 AM 59.0 °F - 53.6 °F 82% 30.14 in 10.0 mi WSW 6.9 mph - N/A   Clear
9:35 AM 60.8 °F - 55.4 °F 82% 30.15 in 10.0 mi WSW 5.8 mph - N/A   Clear
9:55 AM 62.6 °F - 55.4 °F 77% 30.15 in 10.0 mi WSW 4.6 mph - N/A   Clear
10:15 AM 66.2 °F - 57.2 °F 73% 30.16 in 10.0 mi WSW 5.8 mph - N/A   Clear
10:35 AM 66.2 °F - 55.4 °F 68% 30.16 in 10.0 mi WSW 8.1 mph - N/A   Clear
10:55 AM 66.2 °F - 55.4 °F 68% 30.17 in 10.0 mi WSW 6.9 mph - N/A   Clear
11:15 AM 68.0 °F - 55.4 °F 64% 30.17 in 10.0 mi WSW 5.8 mph - N/A   Clear
11:35 AM 69.8 °F - 53.6 °F 56% 30.18 in 10.0 mi WSW 3.5 mph - N/A   Partly Cloudy
11:55 AM 73.4 °F - 46.4 °F 38% 30.18 in 10.0 mi NNW 5.8 mph - N/A   Mostly Cloudy
12:15 PM 73.4 °F - 46.4 °F 38% 30.18 in 10.0 mi North 6.9 mph - N/A   Overcast
12:35 PM 73.4 °F - 46.4 °F 38% 30.19 in 10.0 mi North 10.4 mph - N/A   Overcast
12:55 PM 73.4 °F - 41.0 °F 31% 30.19 in 10.0 mi NNW 8.1 mph - N/A   Overcast
1:15 PM 75.2 °F - 44.6 °F 34% 30.19 in 10.0 mi North 11.5 mph 16.1 mph N/A   Scattered Clouds
1:35 PM 73.4 °F - 42.8 °F 33% 30.19 in 10.0 mi NNE 11.5 mph - N/A   Clear
1:55 PM 75.2 °F - 42.8 °F 31% 30.19 in 10.0 mi NNW 5.8 mph - N/A   Partly Cloudy
2:15 PM 75.2 °F - 42.8 °F 31% 30.19 in 10.0 mi North 9.2 mph - N/A   Clear
2:35 PM 75.2 °F - 42.8 °F 31% 30.19 in 10.0 mi NW 8.1 mph - N/A   Clear
4:15 PM 77.0 °F - 44.6 °F 32% 30.19 in 10.0 mi NW 5.8 mph - N/A   Clear
4:35 PM 77.0 °F - 42.8 °F 29% 30.19 in 10.0 mi North 4.6 mph - N/A   Clear
4:55 PM 77.0 °F - 42.8 °F 29% 30.18 in 10.0 mi NNW 13.8 mph - N/A   Clear
5:15 PM 75.2 °F - 42.8 °F 31% 30.18 in 10.0 mi NW 9.2 mph - N/A   Clear
5:35 PM 77.0 °F - 42.8 °F 29% 30.18 in 10.0 mi NNW 8.1 mph - N/A   Clear
5:55 PM 77.0 °F - 44.6 °F 32% 30.18 in 10.0 mi NNW 9.2 mph - N/A   Clear
6:15 PM 75.2 °F - 44.6 °F 34% 30.19 in 10.0 mi NNW 9.2 mph 16.1 mph N/A   Clear
6:35 PM 75.2 °F - 44.6 °F 34% 30.19 in 10.0 mi NNW 8.1 mph - N/A   Clear
6:55 PM 73.4 °F - 46.4 °F 38% 30.19 in 10.0 mi NNW 8.1 mph - N/A   Clear
7:15 PM 71.6 °F - 46.4 °F 41% 30.19 in 10.0 mi North 6.9 mph - N/A   Clear
7:35 PM 68.0 °F - 46.4 °F 46% 30.20 in 10.0 mi NNE 8.1 mph - N/A   Clear
7:55 PM 66.2 °F - 46.4 °F 49% 30.20 in 10.0 mi NNE 4.6 mph - N/A   Clear
8:15 PM 66.2 °F - 46.4 °F 49% 30.21 in 10.0 mi NE 4.6 mph - N/A   Clear
8:35 PM 59.0 °F - 48.2 °F 67% 30.22 in 9.0 mi Calm Calm - N/A   Clear
8:55 PM 55.4 °F - 48.2 °F 77% 30.23 in 10.0 mi Calm Calm - N/A   Clear
9:15 PM 53.6 °F - 48.2 °F 82% 30.23 in 10.0 mi SSE 3.5 mph - N/A   Clear
9:35 PM 51.8 °F - 46.4 °F 82% 30.25 in 10.0 mi Calm Calm - N/A   Clear
9:55 PM 50.0 °F - 46.4 °F 87% 30.24 in 10.0 mi SSE 5.8 mph - N/A   Clear
10:15 PM 50.0 °F - 46.4 °F 87% 30.25 in 10.0 mi SSE 4.6 mph - N/A   Partly Cloudy
10:35 PM 50.0 °F - 46.4 °F 87% 30.25 in 9.0 mi SSE 5.8 mph - N/A   Partly Cloudy
10:55 PM 50.0 °F - 46.4 °F 87% 30.25 in 10.0 mi South 5.8 mph - N/A   Clear
11:15 PM 48.2 °F - 44.6 °F 87% 30.25 in 10.0 mi South 4.6 mph - N/A   Partly Cloudy
11:35 PM 50.0 °F - 44.6 °F 82% 30.26 in 10.0 mi SSE 3.5 mph - N/A   Partly Cloudy
11:55 PM 46.4 °F 45.2 °F 44.6 °F 93% 30.26 in 10.0 mi South 3.5 mph - N/A   Clear